FENGYUN 1C DEB, 36152

Orbit data source: Space-Track

FENGYUN 1C DEB, 36152 is space debris in SSO originally from a launch on Mon, 10 May 1999 UTC launched from the Taiyaun Space Center, China (TSC). Fengyun 1C debris stems from the Chinese weather satellite Fengyun-1C, which was intentionally destroyed by a Chinese anti-satellite missile in 2007. This event dramatically increased the amount of space debris, with thousands of trackable fragments posing hazards to satellites and human spaceflight. The Fengyun 1C debris cloud has become a focal point in discussions about space sustainability and the need for international regulations to prevent the creation of new debris.

Loading next visibility...
Identifier
36152, 1999-025DRZ
Orbit
SSO
Country
Flag of CNCN / PRC
Related business
Manufacturer
Unknown
Mission
Spacecraft
Bus & Motor
Unknown
Mass
Unknown
Launch date (UTC)
1999-05-10 (27 years ago)
Launch vehicle
Unknown
Launch site
Taiyaun Space Center, China (TSC)
Object type
Payload
Rocket body
Debris
Shape & HBR
Unknown shape, 0.1 m
Radar Cross Section
Small (<0.1 m²)

Expand to show TLE details & history
Last TLE update: 13 hours ago

TLE from 13 hours ago
0 FENGYUN 1C DEB
1 36152U 99025DRZ 26235.83072298  .00001261  00000-0  62536-3 0  9994
2 36152  98.7407 276.7560 0054798 202.8209 157.0531 14.18206388677578
Epoch: 2026-08-23T19:56Z
TLE epoch observation values (Epoch: 2026-08-23T19:56:14.465Z)
Latitude
0.00007°
Longitude
5.57458°
Altitude
870.757 km
Speed
7.398 km/s
True Right ascension
18h 27m 01s
True Declination
0° 00' 00"
Sunlit
Object was in full shadow at epoch
Visualization orbit readout
Latitude
Unknown
Longitude
Unknown
Altitude
Unknown
Speed
Unknown
Apparent Right ascension
Unknown
Apparent Declination
Unknown
Sunlit
N/A
Visualization observer readout
Local Sidereal Time
00:23:32
Azimuth
Unknown
Elevation
Unknown
Doppler factor
Unknown
Orbital elements
Apogee altitude
868.079 km
Perigee altitude
789.096 km
Semi-major axis
7,206.724 km
Eccentricity
0.00548
Inclination
98.7407°
RAAN
276.756°
Arg. of periapsis
202.8209°
True anomaly
157.29638°
Mean anomaly
157.0531°
Eccentric anomaly
157.17489°
Mean motion
3.54761 °/min
Orbital period
101.48 mins
BSTAR
0.00062536
Loading maneuver chart data...
Computing Atmospheric mass density...

Documentation

Showing up to 5 results
|